Location: Izdebno
(52.6670°N, 16.2170°E)
Time: 04:42:41
(UTC+02:00)

Transit 4A - Pass Details

Date: 25 February 2024
Orbit: 871 x 972 km, 66.8° (Epoch: 22 April)

Event Time Altitude Azimuth Distance (km) Brightness Sun altitude
Rises 01:21:15 0° 201° (SSW) 3,601 - -44.2°
Reaches altitude 10° 01:23:50 10° 198° (SSW) 2,646 - -44.1°
Maximum altitude 01:29:50 57° 121° (ESE) 1,075 - -43.6°
Exits shadow 01:34:08 19° 49° (NE) 2,034 10.1 -43.3°
Drops below altitude 10° 01:35:43 10° 44° (NE) 2,592 10.8 -43.2°
Sets 01:38:14 0° 41° (NE) 3,523 11.7 -43.0°
